N2PUI Weather Reports


time (UTC)temp
F
wind
direction
speed
knots
gust
knots
rain 1hr
in
rain 24hr
in
rain mn
in
humidity
%
barometer
mb
20260504005931 52 275 2.6 2.6 0.00 0.00 0.00 51 1011.4
20260504005428 53 196 0.9 0.9 0.00 0.00 0.00 50 1011.4
20260504004925 53 278 2.6 2.6 0.00 0.00 0.00 50 1011.6
20260504004423 53 3 3.5 5.2 0.00 0.00 0.00 49 1011.3
20260504003920 53 310 2.6 2.6 0.00 0.00 0.00 48 1011.4
20260504003416 53 306 7.0 8.7 0.00 0.00 0.00 47 1011.2
20260504002913 53 312 6.1 8.7 0.00 0.00 0.00 47 1011.3
20260504002410 53 234 3.5 5.2 0.00 0.00 0.00 47 1011.2
20260504001907 53 304 4.3 5.2 0.00 0.00 0.00 46 1011.2
20260504001405 53 262 9.6 11.3 0.00 0.00 0.00 46 1011.0
20260504000901 53 219 1.7 2.6 0.00 0.00 0.00 47 1011.1
20260504000358 52 295 2.6 2.6 0.00 0.00 0.00 51 1011.0
20260503235855 52 198 0.0 0.9 0.00 0.00 0.00 51 1010.9
20260503235353 52 143 0.9 1.7 0.00 0.00 0.00 51 1010.7
20260503234850 52 135 0.9 0.9 0.00 0.00 0.00 49 1010.6
20260503234348 52 153 0.0 0.0 0.00 0.00 0.00 49 1010.7
20260503233846 53 137 0.9 0.9 0.00 0.00 0.00 49 1010.6
20260503233342 54 195 0.0 0.9 0.00 0.00 0.00 48 1010.4
20260503232838 55 192 0.0 0.0 0.00 0.00 0.00 43 1010.4
20260503232335 56 260 3.5 4.3 0.00 0.00 0.00 41 1010.4
20260503231834 56 258 2.6 2.6 0.00 0.00 0.00 41 1010.3
20260503231330 56 245 1.7 1.7 0.00 0.00 0.00 42 1010.6
20260503230826 55 212 0.9 0.9 0.00 0.00 0.00 42 1010.5
20260503230323 55 247 2.6 2.6 0.00 0.00 0.00 42 1010.3
20260503225821 55 254 2.6 2.6 0.00 0.00 0.00 44 1010.4
20260503225317 55 201 0.9 0.9 0.00 0.00 0.00 44 1010.5
20260503224813 55 242 1.7 1.7 0.00 0.00 0.00 43 1010.5
20260503224311 55 287 4.3 6.1 0.00 0.00 0.00 43 1010.4
20260503223808 55 149 0.9 0.9 0.00 0.00 0.00 42 1010.7
20260503223306 56 312 3.5 5.2 0.00 0.00 0.00 42 1010.4
20260503222801 55 261 4.3 5.2 0.00 0.00 0.00 41 1010.4
20260503222300 56 313 6.1 7.8 0.00 0.00 0.00 41 1010.6
20260503221757 56 292 7.0 7.8 0.00 0.00 0.00 41 1010.6
20260503221255 57 286 6.1 6.1 0.00 0.00 0.00 40 1010.8
20260503220751 56 265 2.6 2.6 0.00 0.00 0.00 41 1010.7
20260503220249 56 317 2.6 2.6 0.00 0.00 0.00 41 1010.7
20260503215745 56 320 7.0 8.7 0.00 0.00 0.00 41 1010.8
20260503215242 56 275 6.1 7.8 0.00 0.00 0.00 42 1011.1
20260503214740 55 243 4.3 5.2 0.00 0.00 0.00 42 1010.9
20260503214237 55 276 6.1 7.8 0.00 0.00 0.00 43 1010.8
20260503213735 55 273 7.0 8.7 0.00 0.00 0.00 43 1010.8
20260503213232 54 283 6.1 7.8 0.00 0.00 0.00 43 1010.9
20260503212729 55 248 3.5 5.2 0.00 0.00 0.00 44 1010.8
20260503212227 55 324 4.3 4.3 0.00 0.00 0.00 44 1010.7
20260503211724 55 277 2.6 4.3 0.00 0.00 0.00 44 1010.8
20260503211220 54 238 4.3 6.1 0.00 0.00 0.00 45 1010.9
20260503210715 53 336 3.5 4.3 0.00 0.00 0.00 45 1010.9
20260503210213 53 331 7.8 7.8 0.00 0.00 0.00 45 1011.0
20260503205708 53 304 3.5 4.3 0.00 0.00 0.00 46 1010.9
20260503205205 53 282 2.6 2.6 0.00 0.00 0.00 45 1011.1
20260503204701 53 292 7.0 12.2 0.00 0.00 0.00 43 1010.7
20260503204159 53 259 5.2 6.1 0.00 0.00 0.00 43 1010.7
20260503203656 53 304 5.2 7.8 0.00 0.00 0.00 42 1010.7
20260503203154 55 256 6.1 7.8 0.00 0.00 0.00 41 1010.9
20260503202650 54 258 4.3 7.0 0.00 0.00 0.00 41 1010.7
20260503202148 55 258 2.6 5.2 0.00 0.00 0.00 40 1010.8
20260503201646 54 250 3.5 6.1 0.00 0.00 0.00 41 1010.8
20260503201143 55 334 3.5 4.3 0.00 0.00 0.00 40 1011.0
20260503200639 55 277 5.2 7.0 0.00 0.00 0.00 39 1010.9
20260503200136 54 305 4.3 6.1 0.00 0.00 0.00 40 1010.9
20260503195633 54 227 0.9 1.7 0.00 0.00 0.00 41 1010.9
20260503195130 53 291 6.1 7.0 0.00 0.00 0.00 40 1010.8
20260503194627 53 212 4.3 5.2 0.00 0.00 0.00 40 1011.3
20260503194122 53 268 3.5 4.3 0.00 0.00 0.00 40 1011.0
20260503193620 53 317 5.2 6.1 0.00 0.00 0.00 40 1011.3
20260503193115 54 216 4.3 6.1 0.00 0.00 0.00 40 1011.2
20260503192611 54 312 5.2 6.1 0.00 0.00 0.00 40 1011.4
20260503192106 53 18 3.5 5.2 0.00 0.00 0.00 40 1011.4
20260503191558 53 330 3.5 4.3 0.00 0.00 0.00 40 1011.5
20260503191054 55 301 13.0 15.6 0.00 0.00 0.00 38 1011.4
20260503190551 53 254 7.8 8.7 0.00 0.00 0.00 38 1011.4
20260503190048 53 285 5.2 7.0 0.00 0.00 0.00 39 1011.6
20260503185539 53 341 5.2 6.1 0.00 0.00 0.00 39 1011.8
20260503185039 53 269 7.0 9.6 0.00 0.00 0.00 39 1011.5
20260503184535 53 232 2.6 2.6 0.00 0.00 0.00 39 1011.3
20260503184032 54 31 6.1 7.8 0.00 0.00 0.00 38 1011.5
20260503183528 53 290 8.7 9.6 0.00 0.00 0.00 38 1011.7
20260503183026 54 303 5.2 7.8 0.00 0.00 0.00 37 1011.8
20260503182524 53 175 1.7 2.6 0.00 0.00 0.00 39 1011.8
20260503182022 52 305 13.0 18.2 0.00 0.00 0.00 38 1012.0
20260503181518 52 309 7.0 8.7 0.00 0.00 0.00 38 1011.8
20260503181015 54 337 5.2 8.7 0.00 0.00 0.00 40 1012.1
20260503180512 53 125 2.6 5.2 0.00 0.00 0.00 40 1012.1
20260503180009 53 336 4.3 7.0 0.00 0.00 0.00 39 1011.9
20260503175507 53 199 1.7 1.7 0.00 0.00 0.00 40 1012.2
20260503175003 53 235 5.2 7.8 0.00 0.00 0.00 40 1012.1
20260503174501 52 207 2.6 4.3 0.00 0.00 0.00 39 1012.4
20260503173956 53 290 7.8 9.6 0.00 0.00 0.00 39 1012.6
20260503173452 52 229 6.1 7.0 0.00 0.00 0.00 38 1012.4
20260503172949 51 300 5.2 7.0 0.00 0.00 0.00 39 1012.7
20260503172446 51 280 7.8 13.0 0.00 0.00 0.00 40 1012.8
20260503171943 50 318 7.8 11.3 0.00 0.00 0.00 40 1012.6
20260503171439 50 280 10.4 17.4 0.00 0.00 0.00 41 1012.4
20260503170937 50 292 4.3 7.8 0.00 0.00 0.00 40 1012.7
20260503170433 50 269 6.1 7.8 0.00 0.00 0.00 40 1012.9
20260503150826 47 187 1.7 2.6 0.00 0.00 0.00 43 1013.6
20260503150321 47 271 3.5 4.3 0.00 0.00 0.00 44 1013.7
20260503140246 46 274 7.8 12.2 0.00 0.00 0.00 44 1013.8
20260503131215 42 191 1.7 2.6 0.00 0.00 0.00 54 1013.9
20260503130713 41 260 7.8 8.7 0.00 0.00 0.00 55 1013.9
20260503130210 42 225 4.3 6.1 0.00 0.00 0.00 56 1014.1
20260503120136 40 175 1.7 1.7 0.00 0.00 0.00 69 1014.2
20260503110604 38 316 2.6 2.6 0.00 0.00 0.00 75 1013.7
20260503090450 38 321 2.6 4.3 0.00 0.00 0.00 74 1012.9
20260503081417 38 189 0.0 0.0 0.00 0.00 0.00 74 1013.0
20260503080914 38 294 2.6 2.6 0.00 0.00 0.00 74 1013.1
20260503080410 38 161 0.0 0.0 0.00 0.00 0.00 74 1013.3
20260503072847 38 311 2.6 2.6 0.00 0.00 0.00 74 1013.3
20260503072344 38 268 1.7 1.7 0.00 0.00 0.00 74 1012.9
20260503071840 38 191 0.0 0.0 0.00 0.00 0.00 74 1013.1
20260503071337 38 214 0.9 1.7 0.00 0.00 0.00 74 1013.1
20260503070833 38 301 3.5 4.3 0.00 0.00 0.00 74 1013.0
20260503070332 38 197 0.9 0.9 0.00 0.00 0.00 74 1012.8
20260503060256 38 339 1.7 1.7 0.00 0.00 0.00 75 1013.6
20260503054744 38 187 0.0 0.9 0.00 0.00 0.00 75 1013.5
20260503054240 38 152 0.0 0.0 0.00 0.00 0.00 76 1013.6
20260503053738 38 204 0.9 0.9 0.00 0.00 0.00 76 1013.5
20260503053237 38 212 0.9 0.9 0.00 0.00 0.00 76 1013.5
20260503052733 38 166 0.9 0.9 0.00 0.00 0.00 76 1014.0
20260503052230 38 192 0.9 0.9 0.00 0.00 0.00 76 1014.0
20260503051724 38 167 0.0 0.0 0.00 0.00 0.00 75 1013.9
20260503051223 38 215 1.7 1.7 0.00 0.00 0.00 76 1013.9
20260503050719 38 196 0.9 0.9 0.00 0.00 0.00 76 1013.9
20260503050215 38 310 2.6 2.6 0.00 0.00 0.00 76 1014.3
20260503045713 38 169 0.0 0.0 0.00 0.00 0.00 76 1014.1
20260503045211 37 218 0.9 0.9 0.00 0.00 0.00 76 1014.1
20260503044707 37 148 0.0 0.9 0.00 0.00 0.00 76 1014.3
20260503044204 37 148 0.0 0.0 0.00 0.00 0.00 75 1014.2
20260503043701 37 148 0.0 0.0 0.00 0.00 0.00 75 1014.2
20260503043159 37 148 0.0 0.0 0.00 0.00 0.00 75 1014.3
20260503042654 37 148 0.0 0.0 0.00 0.00 0.00 74 1014.5
20260503042151 38 148 0.0 0.0 0.00 0.00 0.00 74 1014.4
20260503041647 38 148 0.0 0.0 0.00 0.00 0.00 74 1014.1
20260503041145 38 141 0.0 0.0 0.00 0.00 0.00 74 1014.3
20260503040642 38 136 0.0 0.0 0.00 0.00 0.00 73 1014.3
20260503040140 38 125 0.9 1.7 0.00 0.00 0.00 73 1014.3
20260503035636 38 9 2.6 2.6 0.00 0.00 0.00 73 1014.3
20260503035134 38 109 0.9 0.9 0.00 0.00 0.00 72 1014.4
20260503034631 38 168 0.0 0.0 0.00 0.00 0.00 72 1014.3
20260503034128 38 125 0.9 0.9 0.00 0.00 0.00 72 1014.3
20260503033625 38 216 0.9 1.7 0.00 0.00 0.00 71 1014.3
20260503033122 39 144 0.0 0.9 0.00 0.00 0.00 71 1014.3
20260503032620 39 185 0.9 0.9 0.00 0.00 0.00 71 1014.4
20260503032119 39 27 0.9 0.9 0.00 0.00 0.00 71 1014.5
20260503031616 39 196 0.9 0.9 0.00 0.00 0.00 71 1014.3
20260503031114 39 306 2.6 2.6 0.00 0.00 0.00 70 1014.3
20260503030609 39 292 1.7 1.7 0.00 0.00 0.00 70 1014.5
20260503030106 39 196 0.9 0.9 0.00 0.00 0.00 70 1014.4
20260503025603 39 177 0.0 0.0 0.00 0.00 0.00 70 1014.4
20260503025101 40 181 0.9 0.9 0.00 0.00 0.00 70 1014.4
20260503024557 40 231 0.9 0.9 0.00 0.00 0.00 70 1014.5
20260503024054 40 317 4.3 6.1 0.00 0.00 0.00 69 1014.5
20260503023551 40 198 0.9 0.9 0.00 0.00 0.00 69 1014.7
20260503023048 40 234 1.7 1.7 0.00 0.00 0.00 69 1014.3
20260503022544 40 355 0.0 0.0 0.00 0.00 0.00 69 1014.4
20260503022039 40 244 2.6 2.6 0.00 0.00 0.00 69 1014.7
20260503021536 39 65 1.7 1.7 0.00 0.00 0.00 69 1014.4
20260503021033 40 156 0.0 0.0 0.00 0.00 0.00 68 1014.7
20260503020530 40 220 0.9 1.7 0.00 0.00 0.00 68 1014.5
20260503020027 40 183 0.9 0.9 0.00 0.00 0.00 67 1014.6
20260503015524 40 191 0.0 0.0 0.00 0.00 0.00 66 1014.5
20260503015021 41 294 0.9 1.7 0.00 0.00 0.00 66 1014.6
20260503014517 41 219 1.7 1.7 0.00 0.00 0.00 65 1014.5
20260503014015 41 231 0.9 0.9 0.00 0.00 0.00 65 1014.5
20260503013512 41 236 1.7 1.7 0.00 0.00 0.00 65 1014.3
20260503013010 41 217 1.7 1.7 0.00 0.00 0.00 65 1014.4
20260503012507 41 194 0.0 0.9 0.00 0.00 0.00 64 1014.3
20260503012003 41 298 1.7 2.6 0.00 0.00 0.00 64 1014.3
20260503011500 41 317 1.7 1.7 0.00 0.00 0.00 63 1014.5
20260503010957 41 281 2.6 5.2 0.00 0.00 0.00 63 1014.3
20260503010453 41 282 2.6 2.6 0.00 0.00 0.00 63 1014.2